Year,Month,Day,Hour,Minute,Value (Times are PST for temperature in C)
2011,07,23,00,00,12.20
2011,07,23,00,01,12.20
2011,07,23,00,02,12.20
2011,07,23,00,03,12.10
2011,07,23,00,04,12.10
2011,07,23,00,05,12.10
2011,07,23,00,06,12.00
2011,07,23,00,07,12.00
2011,07,23,00,08,12.00
2011,07,23,00,09,12.00
2011,07,23,00,10,12.00
2011,07,23,00,11,11.90
2011,07,23,00,12,11.90
2011,07,23,00,13,11.90
2011,07,23,00,14,11.80
2011,07,23,00,15,11.80
2011,07,23,00,16,11.80
2011,07,23,00,17,11.80
2011,07,23,00,18,11.80
2011,07,23,00,19,11.80
2011,07,23,00,20,11.80
2011,07,23,00,21,11.80
2011,07,23,00,22,11.70
2011,07,23,00,23,11.70
2011,07,23,00,24,11.70
2011,07,23,00,25,11.60
2011,07,23,00,26,11.60
2011,07,23,00,27,11.60
2011,07,23,00,28,11.60
2011,07,23,00,29,11.60
2011,07,23,00,30,11.60
2011,07,23,00,31,11.60
2011,07,23,00,32,11.60
2011,07,23,00,33,11.60
2011,07,23,00,34,11.60
2011,07,23,00,35,11.60
2011,07,23,00,36,11.40
2011,07,23,00,37,11.50
2011,07,23,00,38,11.60
2011,07,23,00,39,11.60
2011,07,23,00,40,11.60
2011,07,23,00,41,11.60
2011,07,23,00,42,11.60
2011,07,23,00,43,11.60
2011,07,23,00,44,11.60
2011,07,23,00,45,11.60
2011,07,23,00,46,11.60
2011,07,23,00,47,11.60
2011,07,23,00,48,11.60
2011,07,23,00,49,11.50
2011,07,23,00,50,11.40
2011,07,23,00,51,11.40
2011,07,23,00,52,11.40
2011,07,23,00,53,11.40
2011,07,23,00,54,11.40
2011,07,23,00,55,11.40
2011,07,23,00,56,11.40
2011,07,23,00,57,11.40
2011,07,23,00,58,11.40
2011,07,23,00,59,11.40
2011,07,23,01,00,11.40
2011,07,23,01,01,11.40
2011,07,23,01,02,11.40
2011,07,23,01,03,11.40
2011,07,23,01,04,11.40
2011,07,23,01,05,11.40
2011,07,23,01,06,11.40
2011,07,23,01,07,11.40
2011,07,23,01,08,11.40
2011,07,23,01,09,11.40
2011,07,23,01,10,11.40
2011,07,23,01,11,11.40
2011,07,23,01,12,11.40
2011,07,23,01,13,11.50
2011,07,23,01,14,11.60
2011,07,23,01,15,11.60
2011,07,23,01,16,11.60
2011,07,23,01,17,11.60
2011,07,23,01,18,11.60
2011,07,23,01,19,11.70
2011,07,23,01,20,11.70
2011,07,23,01,21,11.80
2011,07,23,01,22,11.80
2011,07,23,01,23,11.80
2011,07,23,01,24,11.80
2011,07,23,01,25,11.80
2011,07,23,01,26,11.80
2011,07,23,01,27,11.80
2011,07,23,01,28,11.80
2011,07,23,01,29,11.80
2011,07,23,01,30,11.80
2011,07,23,01,31,11.80
2011,07,23,01,32,11.80
2011,07,23,01,33,11.80
2011,07,23,01,34,11.80
2011,07,23,01,35,11.80
2011,07,23,01,36,11.80
2011,07,23,01,37,11.80
2011,07,23,01,38,11.80
2011,07,23,01,39,11.80
2011,07,23,01,40,11.80
2011,07,23,01,41,11.70
2011,07,23,01,42,11.70
2011,07,23,01,43,11.60
2011,07,23,01,44,11.60
2011,07,23,01,45,11.60
2011,07,23,01,46,11.60
2011,07,23,01,47,11.60
2011,07,23,01,48,11.60
2011,07,23,01,49,11.50
2011,07,23,01,50,11.40
2011,07,23,01,51,11.40
2011,07,23,01,52,11.40
2011,07,23,01,53,11.40
2011,07,23,01,54,11.40
2011,07,23,01,55,11.40
2011,07,23,01,56,11.40
2011,07,23,01,57,11.30
2011,07,23,01,58,11.30
2011,07,23,01,59,11.30
2011,07,23,02,00,11.30
2011,07,23,02,01,11.20
2011,07,23,02,02,11.20
2011,07,23,02,03,11.20
2011,07,23,02,04,11.10
2011,07,23,02,05,11.10
2011,07,23,02,06,11.10
2011,07,23,02,07,11.10
2011,07,23,02,08,11.10
2011,07,23,02,09,11.10
2011,07,23,02,10,11.10
2011,07,23,02,11,10.90
2011,07,23,02,12,10.90
2011,07,23,02,13,10.90
2011,07,23,02,14,10.90
2011,07,23,02,15,10.90
2011,07,23,02,16,10.90
2011,07,23,02,17,10.90
2011,07,23,02,18,10.90
2011,07,23,02,19,10.90
2011,07,23,02,20,10.90
2011,07,23,02,21,10.90
2011,07,23,02,22,10.90
2011,07,23,02,23,10.90
2011,07,23,02,24,10.90
2011,07,23,02,25,10.90
2011,07,23,02,26,10.90
2011,07,23,02,27,10.90
2011,07,23,02,28,10.90
2011,07,23,02,29,10.90
2011,07,23,02,30,10.90
2011,07,23,02,31,10.90
2011,07,23,02,32,10.90
2011,07,23,02,33,10.90
2011,07,23,02,34,10.90
2011,07,23,02,35,10.90
2011,07,23,02,36,10.90
2011,07,23,02,37,10.90
2011,07,23,02,38,11.00
2011,07,23,02,39,11.10
2011,07,23,02,40,11.10
2011,07,23,02,41,11.10
2011,07,23,02,42,11.20
2011,07,23,02,43,11.20
2011,07,23,02,44,11.20
2011,07,23,02,45,11.20
2011,07,23,02,46,11.20
2011,07,23,02,47,11.20
2011,07,23,02,48,11.30
2011,07,23,02,49,11.30
2011,07,23,02,50,11.30
2011,07,23,02,51,11.30
2011,07,23,02,52,11.40
2011,07,23,02,53,11.40
2011,07,23,02,54,11.40
2011,07,23,02,55,11.40
2011,07,23,02,56,11.40
2011,07,23,02,57,11.40
2011,07,23,02,58,11.40
2011,07,23,02,59,11.40
2011,07,23,03,00,11.40
2011,07,23,03,01,11.60
2011,07,23,03,02,11.60
2011,07,23,03,03,11.60
2011,07,23,03,04,11.60
2011,07,23,03,05,11.60
2011,07,23,03,06,11.60
2011,07,23,03,07,11.60
2011,07,23,03,08,11.60
2011,07,23,03,09,11.60
2011,07,23,03,10,11.60
2011,07,23,03,11,11.60
2011,07,23,03,12,11.60
2011,07,23,03,13,11.60
2011,07,23,03,14,11.60
2011,07,23,03,15,11.60
2011,07,23,03,16,11.50
2011,07,23,03,17,11.40
2011,07,23,03,18,11.40
2011,07,23,03,19,11.40
2011,07,23,03,20,11.40
2011,07,23,03,21,11.30
2011,07,23,03,22,11.30
2011,07,23,03,23,11.20
2011,07,23,03,24,11.20
2011,07,23,03,25,11.20
2011,07,23,03,26,11.20
2011,07,23,03,27,11.10
2011,07,23,03,28,11.10
2011,07,23,03,29,11.10
2011,07,23,03,30,11.10
2011,07,23,03,31,11.10
2011,07,23,03,32,11.10
2011,07,23,03,33,11.10
2011,07,23,03,34,11.10
2011,07,23,03,35,11.10
2011,07,23,03,36,11.10
2011,07,23,03,37,11.10
2011,07,23,03,38,11.10
2011,07,23,03,39,11.10
2011,07,23,03,40,11.10
2011,07,23,03,41,11.10
2011,07,23,03,42,11.10
2011,07,23,03,43,11.10
2011,07,23,03,44,11.10
2011,07,23,03,45,11.10
2011,07,23,03,46,11.10
2011,07,23,03,47,11.10
2011,07,23,03,48,11.00
2011,07,23,03,49,10.90
2011,07,23,03,50,10.90
2011,07,23,03,51,10.90
2011,07,23,03,52,11.00
2011,07,23,03,53,11.10
2011,07,23,03,54,11.10
2011,07,23,03,55,11.10
2011,07,23,03,56,11.10
2011,07,23,03,57,11.10
2011,07,23,03,58,11.10
2011,07,23,03,59,11.10
2011,07,23,04,00,11.10
2011,07,23,04,01,11.20
2011,07,23,04,02,11.20
2011,07,23,04,03,11.20
2011,07,23,04,04,11.10
2011,07,23,04,05,11.10
2011,07,23,04,06,11.10
2011,07,23,04,07,11.10
2011,07,23,04,08,11.10
2011,07,23,04,09,11.10
2011,07,23,04,10,10.90
2011,07,23,04,11,10.90
2011,07,23,04,12,10.90
2011,07,23,04,13,10.90
2011,07,23,04,14,10.90
2011,07,23,04,15,10.90
2011,07,23,04,16,10.90
2011,07,23,04,17,10.80
2011,07,23,04,18,10.80
2011,07,23,04,19,10.80
2011,07,23,04,20,10.70
2011,07,23,04,21,10.70
2011,07,23,04,22,10.70
2011,07,23,04,23,10.60
2011,07,23,04,24,10.60
2011,07,23,04,25,10.60
2011,07,23,04,26,10.60
2011,07,23,04,27,10.60
2011,07,23,04,28,10.50
2011,07,23,04,29,10.40
2011,07,23,04,30,10.40
2011,07,23,04,31,10.40
2011,07,23,04,32,10.40
2011,07,23,04,33,10.40
2011,07,23,04,34,10.30
2011,07,23,04,35,10.30
2011,07,23,04,36,10.30
2011,07,23,04,37,10.30
2011,07,23,04,38,10.30
2011,07,23,04,39,10.30
2011,07,23,04,40,10.30
2011,07,23,04,41,10.30
2011,07,23,04,42,10.30
2011,07,23,04,43,10.20
2011,07,23,04,44,10.20
2011,07,23,04,45,10.20
2011,07,23,04,46,10.10
2011,07,23,04,47,10.10
2011,07,23,04,48,10.10
2011,07,23,04,49,10.10
2011,07,23,04,50,10.10
2011,07,23,04,51,10.10
2011,07,23,04,52,10.10
2011,07,23,04,53,10.10
2011,07,23,04,54,10.10
2011,07,23,04,55,10.10
2011,07,23,04,56,10.10
2011,07,23,04,57,10.10
2011,07,23,04,58,10.10
2011,07,23,04,59,10.10
2011,07,23,05,00,10.10
2011,07,23,05,01,10.00
2011,07,23,05,02,9.90
2011,07,23,05,03,9.90
2011,07,23,05,04,9.90
2011,07,23,05,05,9.90
2011,07,23,05,06,9.90
2011,07,23,05,07,9.90
2011,07,23,05,08,9.90
2011,07,23,05,09,9.90
2011,07,23,05,10,9.90
2011,07,23,05,11,9.90
2011,07,23,05,12,10.10
2011,07,23,05,13,10.10
2011,07,23,05,14,10.10
2011,07,23,05,15,10.10
2011,07,23,05,16,10.10
2011,07,23,05,17,10.10
2011,07,23,05,18,10.10
2011,07,23,05,19,10.10
2011,07,23,05,20,10.10
2011,07,23,05,21,10.10
2011,07,23,05,22,10.10
2011,07,23,05,23,10.20
2011,07,23,05,24,10.20
2011,07,23,05,25,10.20
2011,07,23,05,26,10.20
2011,07,23,05,27,10.20
2011,07,23,05,28,10.30
2011,07,23,05,29,10.30
2011,07,23,05,30,10.40
2011,07,23,05,31,10.40
2011,07,23,05,32,10.40
2011,07,23,05,33,10.40
2011,07,23,05,34,10.40
2011,07,23,05,35,10.40
2011,07,23,05,36,10.40
2011,07,23,05,37,10.30
2011,07,23,05,38,10.30
2011,07,23,05,39,10.30
2011,07,23,05,40,10.20
2011,07,23,05,41,10.20
2011,07,23,05,42,10.20
2011,07,23,05,43,10.20
2011,07,23,05,44,10.20
2011,07,23,05,45,10.20
2011,07,23,05,46,10.30
2011,07,23,05,47,10.30
2011,07,23,05,48,10.40
2011,07,23,05,49,10.40
2011,07,23,05,50,10.40
2011,07,23,05,51,10.40
2011,07,23,05,52,10.40
2011,07,23,05,53,10.40
2011,07,23,05,54,10.40
2011,07,23,05,55,10.50
2011,07,23,05,56,10.60
2011,07,23,05,57,10.60
2011,07,23,05,58,10.60
2011,07,23,05,59,10.60
2011,07,23,06,00,10.60
2011,07,23,06,01,10.60
2011,07,23,06,02,10.60
2011,07,23,06,03,10.60
2011,07,23,06,04,10.70
2011,07,23,06,05,10.70
2011,07,23,06,06,10.80
2011,07,23,06,07,10.80
2011,07,23,06,08,10.90
2011,07,23,06,09,10.90
2011,07,23,06,10,10.90
2011,07,23,06,11,10.90
2011,07,23,06,12,10.90
2011,07,23,06,13,10.90
2011,07,23,06,14,10.90
2011,07,23,06,15,10.90
2011,07,23,06,16,10.90
2011,07,23,06,17,11.00
2011,07,23,06,18,11.10
2011,07,23,06,19,11.10
2011,07,23,06,20,11.10
2011,07,23,06,21,11.10
2011,07,23,06,22,11.10
2011,07,23,06,23,11.10
2011,07,23,06,24,11.10
2011,07,23,06,25,11.10
2011,07,23,06,26,11.10
2011,07,23,06,27,11.10
2011,07,23,06,28,11.10
2011,07,23,06,29,11.10
2011,07,23,06,30,11.20
2011,07,23,06,31,11.20
2011,07,23,06,32,11.20
2011,07,23,06,33,11.20
2011,07,23,06,34,11.30
2011,07,23,06,35,11.30
2011,07,23,06,36,11.30
2011,07,23,06,37,11.30
2011,07,23,06,38,11.30
2011,07,23,06,39,11.40
2011,07,23,06,40,11.40
2011,07,23,06,41,11.40
2011,07,23,06,42,11.40
2011,07,23,06,43,11.40
2011,07,23,06,44,11.40
2011,07,23,06,45,11.40
2011,07,23,06,46,11.50
2011,07,23,06,47,11.60
2011,07,23,06,48,11.60
2011,07,23,06,49,11.60
2011,07,23,06,50,11.60
2011,07,23,06,51,11.60
2011,07,23,06,52,11.60
2011,07,23,06,53,11.60
2011,07,23,06,54,11.60
2011,07,23,06,55,11.60
2011,07,23,06,56,11.60
2011,07,23,06,57,11.60
2011,07,23,06,58,11.60
2011,07,23,06,59,11.60
2011,07,23,07,00,11.60
2011,07,23,07,01,11.60
2011,07,23,07,02,11.60
2011,07,23,07,03,11.60
2011,07,23,07,04,11.60
2011,07,23,07,05,11.60
2011,07,23,07,06,11.70
2011,07,23,07,07,11.70
2011,07,23,07,08,11.80
2011,07,23,07,09,11.80
2011,07,23,07,10,11.80
2011,07,23,07,11,11.80
2011,07,23,07,12,11.80
2011,07,23,07,13,11.90
2011,07,23,07,14,11.90
2011,07,23,07,15,11.90
2011,07,23,07,16,11.90
2011,07,23,07,17,12.00
2011,07,23,07,18,12.00
2011,07,23,07,19,12.00
2011,07,23,07,20,11.90
2011,07,23,07,21,11.90
2011,07,23,07,22,11.90
2011,07,23,07,23,11.90
2011,07,23,07,24,11.90
2011,07,23,07,25,11.90
2011,07,23,07,26,11.90
2011,07,23,07,27,11.90
2011,07,23,07,28,11.90
2011,07,23,07,29,11.90
2011,07,23,07,30,11.90
2011,07,23,07,31,11.90
2011,07,23,07,32,11.90
2011,07,23,07,33,11.90
2011,07,23,07,34,11.90
2011,07,23,07,35,12.00
2011,07,23,07,36,12.00
2011,07,23,07,37,12.00
2011,07,23,07,38,12.00
2011,07,23,07,39,12.10
2011,07,23,07,40,12.10
2011,07,23,07,41,12.20
2011,07,23,07,42,12.20
2011,07,23,07,43,12.20
2011,07,23,07,44,12.30
2011,07,23,07,45,12.20
2011,07,23,07,46,12.20
2011,07,23,07,47,12.20
2011,07,23,07,48,12.20
2011,07,23,07,49,12.20
2011,07,23,07,50,12.20
2011,07,23,07,51,12.20
2011,07,23,07,52,12.20
2011,07,23,07,53,12.30
2011,07,23,07,54,12.30
2011,07,23,07,55,12.30
2011,07,23,07,56,12.30
2011,07,23,07,57,12.30
2011,07,23,07,58,12.30
2011,07,23,07,59,12.30
2011,07,23,08,00,12.30
2011,07,23,08,01,12.30
2011,07,23,08,02,12.30
2011,07,23,08,03,12.30
2011,07,23,08,04,12.30
2011,07,23,08,05,12.30
2011,07,23,08,06,12.30
2011,07,23,08,07,12.30
2011,07,23,08,08,12.40
2011,07,23,08,09,12.50
2011,07,23,08,10,12.60
2011,07,23,08,11,12.60
2011,07,23,08,12,12.70
2011,07,23,08,13,12.80
2011,07,23,08,14,12.90
2011,07,23,08,15,12.90
2011,07,23,08,16,12.90
2011,07,23,08,17,13.00
2011,07,23,08,18,13.00
2011,07,23,08,19,13.10
2011,07,23,08,20,13.10
2011,07,23,08,21,13.00
2011,07,23,08,22,13.00
2011,07,23,08,23,13.00
2011,07,23,08,24,13.00
2011,07,23,08,25,13.00
2011,07,23,08,26,13.00
2011,07,23,08,27,13.10
2011,07,23,08,28,13.10
2011,07,23,08,29,13.10
2011,07,23,08,30,13.10
2011,07,23,08,31,13.10
2011,07,23,08,32,13.10
2011,07,23,08,33,13.10
2011,07,23,08,34,13.20
2011,07,23,08,35,13.20
2011,07,23,08,36,13.30
2011,07,23,08,37,13.30
2011,07,23,08,38,13.30
2011,07,23,08,39,13.30
2011,07,23,08,40,13.30
2011,07,23,08,41,13.30
2011,07,23,08,42,13.40
2011,07,23,08,43,13.40
2011,07,23,08,44,13.40
2011,07,23,08,45,13.40
2011,07,23,08,46,13.40
2011,07,23,08,47,13.50
2011,07,23,08,48,13.50
2011,07,23,08,49,13.60
2011,07,23,08,50,13.70
2011,07,23,08,51,13.70
2011,07,23,08,52,13.70
2011,07,23,08,53,13.70
2011,07,23,08,54,13.70
2011,07,23,08,55,13.70
2011,07,23,08,56,13.70
2011,07,23,08,57,13.60
2011,07,23,08,58,13.60
2011,07,23,08,59,13.60
2011,07,23,09,00,13.60
2011,07,23,09,01,13.60
2011,07,23,09,02,13.60
2011,07,23,09,03,13.70
2011,07,23,09,04,13.70
2011,07,23,09,05,13.70
2011,07,23,09,06,13.70
2011,07,23,09,07,13.70
2011,07,23,09,08,13.70
2011,07,23,09,09,13.70
2011,07,23,09,10,13.80
2011,07,23,09,11,13.90
2011,07,23,09,12,13.90
2011,07,23,09,13,13.90
2011,07,23,09,14,13.90
2011,07,23,09,15,13.90
2011,07,23,09,16,13.80
2011,07,23,09,17,13.80
2011,07,23,09,18,13.70
2011,07,23,09,19,13.70
2011,07,23,09,20,13.70
2011,07,23,09,21,13.70
2011,07,23,09,22,13.70
2011,07,23,09,23,13.70
2011,07,23,09,24,13.70
2011,07,23,09,25,13.70
2011,07,23,09,26,13.70
2011,07,23,09,27,13.70
2011,07,23,09,28,13.70
2011,07,23,09,29,13.70
2011,07,23,09,30,13.70
2011,07,23,09,31,13.80
2011,07,23,09,32,13.80
2011,07,23,09,33,13.80
2011,07,23,09,34,13.80
2011,07,23,09,35,13.80
2011,07,23,09,36,13.80
2011,07,23,09,37,13.80
2011,07,23,09,38,13.80
2011,07,23,09,39,13.80
2011,07,23,09,40,13.80
2011,07,23,09,41,13.90
2011,07,23,09,42,13.90
2011,07,23,09,43,13.90
2011,07,23,09,44,13.90
2011,07,23,09,45,14.00
2011,07,23,09,46,14.00
2011,07,23,09,47,14.20
2011,07,23,09,48,14.20
2011,07,23,09,49,14.30
2011,07,23,09,50,14.30
2011,07,23,09,51,14.30
2011,07,23,09,52,14.30
2011,07,23,09,53,14.30
2011,07,23,09,54,14.30
2011,07,23,09,55,14.30
2011,07,23,09,56,14.30
2011,07,23,09,57,14.30
2011,07,23,09,58,14.30
2011,07,23,09,59,14.30
2011,07,23,10,00,14.30
2011,07,23,10,01,14.30
2011,07,23,10,02,14.30
2011,07,23,10,03,14.30
2011,07,23,10,04,14.30
2011,07,23,10,05,14.30
2011,07,23,10,06,14.30
2011,07,23,10,07,14.40
2011,07,23,10,08,14.50
2011,07,23,10,09,14.50
2011,07,23,10,10,14.60
2011,07,23,10,11,14.60
2011,07,23,10,12,14.70
2011,07,23,10,13,14.70
2011,07,23,10,14,14.80
2011,07,23,10,15,14.80
2011,07,23,10,16,14.80
2011,07,23,10,17,14.80
2011,07,23,10,18,14.80
2011,07,23,10,19,14.80
2011,07,23,10,20,14.80
2011,07,23,10,21,14.80
2011,07,23,10,22,14.80
2011,07,23,10,23,14.80
2011,07,23,10,24,14.80
2011,07,23,10,25,14.80
2011,07,23,10,26,14.80
2011,07,23,10,27,14.80
2011,07,23,10,28,14.80
2011,07,23,10,29,14.90
2011,07,23,10,30,15.00
2011,07,23,10,31,15.00
2011,07,23,10,32,15.10
2011,07,23,10,33,15.10
2011,07,23,10,34,15.10
2011,07,23,10,35,15.10
2011,07,23,10,36,15.10
2011,07,23,10,37,15.10
2011,07,23,10,38,15.10
2011,07,23,10,39,15.10
2011,07,23,10,40,15.10
2011,07,23,10,41,15.20
2011,07,23,10,42,15.30
2011,07,23,10,43,15.30
2011,07,23,10,44,15.30
2011,07,23,10,45,15.40
2011,07,23,10,46,15.50
2011,07,23,10,47,15.60
2011,07,23,10,48,15.80
2011,07,23,10,49,15.90
2011,07,23,10,50,16.00
2011,07,23,10,51,16.10
2011,07,23,10,52,16.20
2011,07,23,10,53,16.30
2011,07,23,10,54,16.40
2011,07,23,10,55,16.30
2011,07,23,10,56,16.30
2011,07,23,10,57,16.30
2011,07,23,10,58,16.40
2011,07,23,10,59,16.30
2011,07,23,11,00,16.30
2011,07,23,11,01,16.30
2011,07,23,11,02,16.40
2011,07,23,11,03,16.40
2011,07,23,11,04,16.40
2011,07,23,11,05,16.50
2011,07,23,11,06,16.60
2011,07,23,11,07,16.50
2011,07,23,11,08,16.40
2011,07,23,11,09,16.40
2011,07,23,11,10,16.40
2011,07,23,11,11,16.40
2011,07,23,11,12,16.40
2011,07,23,11,13,16.40
2011,07,23,11,14,16.40
2011,07,23,11,15,16.40
2011,07,23,11,16,16.40
2011,07,23,11,17,16.40
2011,07,23,11,18,16.40
2011,07,23,11,19,16.30
2011,07,23,11,20,16.30
2011,07,23,11,21,16.30
2011,07,23,11,22,16.20
2011,07,23,11,23,16.20
2011,07,23,11,24,16.20
2011,07,23,11,25,16.20
2011,07,23,11,26,16.20
2011,07,23,11,27,16.30
2011,07,23,11,28,16.40
2011,07,23,11,29,16.40
2011,07,23,11,30,16.40
2011,07,23,11,31,16.40
2011,07,23,11,32,16.50
2011,07,23,11,33,16.60
2011,07,23,11,34,16.70
2011,07,23,11,35,16.80
2011,07,23,11,36,16.80
2011,07,23,11,37,16.70
2011,07,23,11,38,16.70
2011,07,23,11,39,16.70
2011,07,23,11,40,16.80
2011,07,23,11,41,16.90
2011,07,23,11,42,17.00
2011,07,23,11,43,17.10
2011,07,23,11,44,17.20
2011,07,23,11,45,17.30
2011,07,23,11,46,17.30
2011,07,23,11,47,17.30
2011,07,23,11,48,17.50
2011,07,23,11,49,17.50
2011,07,23,11,50,17.40
2011,07,23,11,51,17.50
2011,07,23,11,52,17.50
2011,07,23,11,53,17.50
2011,07,23,11,54,17.50
2011,07,23,11,55,17.50
2011,07,23,11,56,17.50
2011,07,23,11,57,17.50
2011,07,23,11,58,17.40
2011,07,23,11,59,17.30
2011,07,23,12,00,17.40
2011,07,23,12,01,17.50
2011,07,23,12,02,17.50
2011,07,23,12,03,17.60
2011,07,23,12,04,17.80
2011,07,23,12,05,17.90
2011,07,23,12,06,17.90
2011,07,23,12,07,17.90
2011,07,23,12,08,17.90
2011,07,23,12,09,17.90
2011,07,23,12,10,17.80
2011,07,23,12,11,17.90
2011,07,23,12,12,17.90
2011,07,23,12,13,17.90
2011,07,23,12,14,18.00
2011,07,23,12,15,17.90
2011,07,23,12,16,18.00
2011,07,23,12,17,18.00
2011,07,23,12,18,17.90
2011,07,23,12,19,17.90
2011,07,23,12,20,17.90
2011,07,23,12,21,17.70
2011,07,23,12,22,17.60
2011,07,23,12,23,17.50
2011,07,23,12,24,17.40
2011,07,23,12,25,17.30
2011,07,23,12,26,17.30
2011,07,23,12,27,17.20
2011,07,23,12,28,17.10
2011,07,23,12,29,17.20
2011,07,23,12,30,17.20
2011,07,23,12,31,17.30
2011,07,23,12,32,17.30
2011,07,23,12,33,17.40
2011,07,23,12,34,17.50
2011,07,23,12,35,17.60
2011,07,23,12,36,17.70
2011,07,23,12,37,17.80
2011,07,23,12,38,17.80
2011,07,23,12,39,17.80
2011,07,23,12,40,17.90
2011,07,23,12,41,17.90
2011,07,23,12,42,17.90
2011,07,23,12,43,18.00
2011,07,23,12,44,18.10
2011,07,23,12,45,18.20
2011,07,23,12,46,18.20
2011,07,23,12,47,18.20
2011,07,23,12,48,18.20
2011,07,23,12,49,18.20
2011,07,23,12,50,18.20
2011,07,23,12,51,18.20
2011,07,23,12,52,18.30
2011,07,23,12,53,18.30
2011,07,23,12,54,18.20
2011,07,23,12,55,18.20
2011,07,23,12,56,18.10
2011,07,23,12,57,18.10
2011,07,23,12,58,18.00
2011,07,23,12,59,17.90
2011,07,23,13,00,17.90
2011,07,23,13,01,18.00
2011,07,23,13,02,18.10
2011,07,23,13,03,18.10
2011,07,23,13,04,18.20
2011,07,23,13,05,18.30
2011,07,23,13,06,18.30
2011,07,23,13,07,18.30
2011,07,23,13,08,18.30
2011,07,23,13,09,18.40
2011,07,23,13,10,18.50
2011,07,23,13,11,18.70
2011,07,23,13,12,18.80
2011,07,23,13,13,18.90
2011,07,23,13,14,19.00
2011,07,23,13,15,19.10
2011,07,23,13,16,19.10
2011,07,23,13,17,19.10
2011,07,23,13,18,19.10
2011,07,23,13,19,19.20
2011,07,23,13,20,19.20
2011,07,23,13,21,19.20
2011,07,23,13,22,19.20
2011,07,23,13,23,19.20
2011,07,23,13,24,19.30
2011,07,23,13,25,19.30
2011,07,23,13,26,19.20
2011,07,23,13,27,19.20
2011,07,23,13,28,19.30
2011,07,23,13,29,19.30
2011,07,23,13,30,19.30
2011,07,23,13,31,19.30
2011,07,23,13,32,19.30
2011,07,23,13,33,19.10
2011,07,23,13,34,19.00
2011,07,23,13,35,18.90
2011,07,23,13,36,18.90
2011,07,23,13,37,18.90
2011,07,23,13,38,18.90
2011,07,23,13,39,18.90
2011,07,23,13,40,18.90
2011,07,23,13,41,18.90
2011,07,23,13,42,18.90
2011,07,23,13,43,18.80
2011,07,23,13,44,18.80
2011,07,23,13,45,18.90
2011,07,23,13,46,19.10
2011,07,23,13,47,19.10
2011,07,23,13,48,19.30
2011,07,23,13,49,19.30
2011,07,23,13,50,19.20
2011,07,23,13,51,19.20
2011,07,23,13,52,19.10
2011,07,23,13,53,19.10
2011,07,23,13,54,19.10
2011,07,23,13,55,19.10
2011,07,23,13,56,19.10
2011,07,23,13,57,19.10
2011,07,23,13,58,19.20
2011,07,23,13,59,19.30
2011,07,23,14,00,19.40
2011,07,23,14,01,19.40
2011,07,23,14,02,19.50
2011,07,23,14,03,19.50
2011,07,23,14,04,19.50
2011,07,23,14,05,19.50
2011,07,23,14,06,19.60
2011,07,23,14,07,19.60
2011,07,23,14,08,19.60
2011,07,23,14,09,19.50
2011,07,23,14,10,19.50
2011,07,23,14,11,19.50
2011,07,23,14,12,19.50
2011,07,23,14,13,19.50
2011,07,23,14,14,19.40
2011,07,23,14,15,19.30
2011,07,23,14,16,19.10
2011,07,23,14,17,19.20
2011,07,23,14,18,19.20
2011,07,23,14,19,19.30
2011,07,23,14,20,19.40
2011,07,23,14,21,19.50
2011,07,23,14,22,19.60
2011,07,23,14,23,19.60
2011,07,23,14,24,19.70
2011,07,23,14,25,19.70
2011,07,23,14,26,19.80
2011,07,23,14,27,19.80
2011,07,23,14,28,19.70
2011,07,23,14,29,19.70
2011,07,23,14,30,19.70
2011,07,23,14,31,19.70
2011,07,23,14,32,19.70
2011,07,23,14,33,19.80
2011,07,23,14,34,19.90
2011,07,23,14,35,19.90
2011,07,23,14,36,19.90
2011,07,23,14,37,19.80
2011,07,23,14,38,19.80
2011,07,23,14,39,19.80
2011,07,23,14,40,19.80
2011,07,23,14,41,19.80
2011,07,23,14,42,19.90
2011,07,23,14,43,19.90
2011,07,23,14,44,20.00
2011,07,23,14,45,20.00
2011,07,23,14,46,19.90
2011,07,23,14,47,19.90
2011,07,23,14,48,19.80
2011,07,23,14,49,19.80
2011,07,23,14,50,19.70
2011,07,23,14,51,19.60
2011,07,23,14,52,19.60
2011,07,23,14,53,19.50
2011,07,23,14,54,19.40
2011,07,23,14,55,19.40
2011,07,23,14,56,19.40
2011,07,23,14,57,19.40
2011,07,23,14,58,19.40
2011,07,23,14,59,19.40
2011,07,23,15,00,19.40
2011,07,23,15,01,19.40
2011,07,23,15,02,19.40
2011,07,23,15,03,19.40
2011,07,23,15,04,19.50
2011,07,23,15,05,19.60
2011,07,23,15,06,19.70
2011,07,23,15,07,19.70
2011,07,23,15,08,19.70
2011,07,23,15,09,19.70
2011,07,23,15,10,19.70
2011,07,23,15,11,19.70
2011,07,23,15,12,19.70
2011,07,23,15,13,19.70
2011,07,23,15,14,19.80
2011,07,23,15,15,19.70
2011,07,23,15,16,19.70
2011,07,23,15,17,19.70
2011,07,23,15,18,19.70
2011,07,23,15,19,19.70
2011,07,23,15,20,19.70
2011,07,23,15,21,19.70
2011,07,23,15,22,19.60
2011,07,23,15,23,19.60
2011,07,23,15,24,19.60
2011,07,23,15,25,19.60
2011,07,23,15,26,19.60
2011,07,23,15,27,19.70
2011,07,23,15,28,19.70
2011,07,23,15,29,19.70
2011,07,23,15,30,19.80
2011,07,23,15,31,19.80
2011,07,23,15,32,19.80
2011,07,23,15,33,19.90
2011,07,23,15,34,19.90
2011,07,23,15,35,20.00
2011,07,23,15,36,20.10
2011,07,23,15,37,20.10
2011,07,23,15,38,20.20
2011,07,23,15,39,20.20
2011,07,23,15,40,20.30
2011,07,23,15,41,20.40
2011,07,23,15,42,20.50
2011,07,23,15,43,20.50
2011,07,23,15,44,20.60
2011,07,23,15,45,20.60
2011,07,23,15,46,20.60
2011,07,23,15,47,20.60
2011,07,23,15,48,20.50
2011,07,23,15,49,20.50
2011,07,23,15,50,20.50
2011,07,23,15,51,20.50
2011,07,23,15,52,20.50
2011,07,23,15,53,20.50
2011,07,23,15,54,20.60
2011,07,23,15,55,20.50
2011,07,23,15,56,20.50
2011,07,23,15,57,20.50
2011,07,23,15,58,20.50
2011,07,23,15,59,20.50
2011,07,23,16,00,20.50
2011,07,23,16,01,20.40
2011,07,23,16,02,20.40
2011,07,23,16,03,20.50
2011,07,23,16,04,20.50
2011,07,23,16,05,20.60
2011,07,23,16,06,20.60
2011,07,23,16,07,20.50
2011,07,23,16,08,20.50
2011,07,23,16,09,20.50
2011,07,23,16,10,20.40
2011,07,23,16,11,20.40
2011,07,23,16,12,20.40
2011,07,23,16,13,20.30
2011,07,23,16,14,20.30
2011,07,23,16,15,20.30
2011,07,23,16,16,20.30
2011,07,23,16,17,20.30
2011,07,23,16,18,20.30
2011,07,23,16,19,20.30
2011,07,23,16,20,20.40
2011,07,23,16,21,20.40
2011,07,23,16,22,20.50
2011,07,23,16,23,20.50
2011,07,23,16,24,20.50
2011,07,23,16,25,20.50
2011,07,23,16,26,20.50
2011,07,23,16,27,20.50
2011,07,23,16,28,20.50
2011,07,23,16,29,20.60
2011,07,23,16,30,20.60
2011,07,23,16,31,20.60
2011,07,23,16,32,20.70
2011,07,23,16,33,20.80
2011,07,23,16,34,20.80
2011,07,23,16,35,20.90
2011,07,23,16,36,21.00
2011,07,23,16,37,21.10
2011,07,23,16,38,21.10
2011,07,23,16,39,21.10
2011,07,23,16,40,21.20
2011,07,23,16,41,21.20
2011,07,23,16,42,21.20
2011,07,23,16,43,21.20
2011,07,23,16,44,21.20
2011,07,23,16,45,21.10
2011,07,23,16,46,21.10
2011,07,23,16,47,21.10
2011,07,23,16,48,21.00
2011,07,23,16,49,21.00
2011,07,23,16,50,21.00
2011,07,23,16,51,21.00
2011,07,23,16,52,20.90
2011,07,23,16,53,20.90
2011,07,23,16,54,20.90
2011,07,23,16,55,20.90
2011,07,23,16,56,20.90
2011,07,23,16,57,21.00
2011,07,23,16,58,21.00
2011,07,23,16,59,21.00
2011,07,23,17,00,21.10
2011,07,23,17,01,21.10
2011,07,23,17,02,21.00
2011,07,23,17,03,21.00
2011,07,23,17,04,21.00
2011,07,23,17,05,21.00
2011,07,23,17,06,21.00
2011,07,23,17,07,21.10
2011,07,23,17,08,21.10
2011,07,23,17,09,21.20
2011,07,23,17,10,21.30
2011,07,23,17,11,21.40
2011,07,23,17,12,21.40
2011,07,23,17,13,21.50
2011,07,23,17,14,21.60
2011,07,23,17,15,21.60
2011,07,23,17,16,21.60
2011,07,23,17,17,21.60
2011,07,23,17,18,21.60
2011,07,23,17,19,21.50